#timestamp,LO_Frequency,Hit,StdDev 
1661457615.9,286046998.9,N
1661457635.7,286046998.1,N
1661457655.6,286046999.4,N
1661457675.4,286046998.7,N
1661457695.3,286047000.7,N
1661457715.1,286046998.9,N
1661457716.0,286046998.9,N
1661457735.8,286046999.4,N
1661457755.7,286046998.9,N
1661457775.5,286046998.6,N
1661457795.3,286047000.0,N
1661457815.2,286047000.8,N
1661457835.0,286046998.4,N
1661457835.9,286046998.4,N
1661457855.8,286046998.7,N
1661457875.6,286047001.1,N
1661457895.4,286047000.8,N
1661457915.3,286046998.5,N
1661457935.1,286047000.8,N
1661457955.8,286046998.3,N
1661457975.7,286047000.5,N
1661457995.5,286047000.8,N
1661458015.4,286047001.2,N
1661458035.2,286046998.3,N
1661458055.0,286046998.5,N
1661458055.9,286046998.5,N
1661458075.8,286046998.5,N
1661458095.6,286047001.0,N
1661458115.5,286047000.6,N
1661458135.3,286047000.0,N
1661458155.1,286047000.4,N
1661458175.9,286047000.7,N
1661458195.7,286047000.7,N
1661458215.6,286047000.2,N
1661458235.4,286047000.3,N
1661458255.2,286046998.2,N
1661458275.1,286047000.8,N
1661458276.0,286047000.8,N
1661458295.8,286047000.5,N
1661458315.6,286047002.8,N
1661458335.5,286047000.5,N
1661458355.3,286047000.1,N
1661458375.2,286047001.1,N
1661458395.9,286047001.2,N
1661458415.7,286047000.3,N
1661458435.6,286047000.0,N
1661458455.4,286047000.2,N
1661458475.2,286047000.4,N
1661458495.1,286047000.0,N
1661458515.1,286047000.6,N
1661458516.0,286047000.6,N
1661458535.8,286047000.5,N
1661458555.6,286046999.9,N
1661458575.5,286047000.0,N
1661458595.3,286047000.0,N
1661458615.2,286047000.4,N
1661458635.9,286047000.1,N
1661458655.7,286047000.9,N
1661458675.6,286047000.7,N
1661458695.4,286047000.3,N
1661458715.2,286047000.3,N
1661458735.1,286047001.0,N
1661458736.0,286047001.0,N
1661458755.8,286047000.4,N
1661458775.7,286046998.2,N
1661458795.5,286047000.2,N
1661458815.3,286047002.3,Y
1661458835.2,286047000.6,P
1661458855.0,286047000.9,P
1661458855.9,286047000.9,P
1661458875.8,286046998.2,Y
1661458895.6,286046999.4,P
1661458915.4,286046997.9,P
1661458935.3,286046997.8,N
1661458955.1,286046995.3,Y
1661458975.9,286046996.7,P
1661458995.7,286046996.5,P
1661459015.5,286046999.6,N
1661459035.4,286046997.1,N
1661459055.2,286046999.6,N
1661459075.0,286046999.3,N
1661459075.9,286046999.3,N
1661459095.8,286046999.1,N
1661459115.6,286046997.3,N
1661459135.5,286046997.3,N
1661459155.3,286046997.2,N
1661459175.1,286046997.7,N
1661459195.9,286046997.2,N
1661459215.7,286046996.7,N
1661459235.5,286046997.5,N
1661459255.4,286046993.9,Y
1661459275.2,286046995.7,P
1661459295.1,286046995.3,P
1661459296.0,286046995.3,P
1661459315.8,286046997.6,N
1661459335.6,286046997.4,N
1661459355.5,286046996.9,N
1661459375.3,286046999.2,N
1661459395.1,286046999.2,N
1661459415.9,286046998.6,N
1661459435.7,286046998.6,N
1661459455.6,286046998.2,N
1661459475.4,286046999.1,N
1661459495.2,286046997.0,N
1661459515.1,286046997.0,N
1661459516.0,286046997.0,N
1661459535.8,286046999.6,N
1661459555.6,286046996.7,N
1661459575.5,286046998.6,N
1661459595.3,286046998.5,N
1661459615.2,286046999.4,N
1661459635.9,286046998.5,N
1661459655.7,286046998.2,N
1661459675.6,286046998.1,N
1661459695.4,286046998.3,N
1661459715.2,286047001.1,N
1661459735.1,286047000.6,N
1661459736.0,286047000.6,N
1661459755.8,286046998.3,N
1661459775.7,286046998.3,N
1661459795.5,286047000.5,N
1661459815.3,286047001.0,N
1661459835.2,286047002.1,N
1661459855.9,286047002.7,N
1661459875.7,286047002.5,N
1661459895.6,286047001.4,N
1661459915.4,286047002.0,N
1661459935.3,286047001.9,N
1661459955.1,286047001.4,N
1661459956.0,286047001.4,N
1661459975.8,286047004.4,N
1661459995.7,286047004.0,N
1661460015.5,286047001.7,N
1661460035.3,286047002.6,N
1661460055.2,286047002.2,N
1661460075.0,286047001.6,N
1661460075.9,286047001.6,N
1661460095.8,286047004.0,N
1661460115.6,286047004.2,N
1661460135.4,286047001.3,N
1661460155.3,286047001.8,N
1661460175.1,286047001.7,N
1661460195.8,286047002.2,N
1661460215.7,286047002.2,N
1661460235.5,286047001.5,N
1661460255.4,286047002.1,N
1661460275.2,286047002.1,N
1661460295.0,286047000.3,N
1661460295.9,286047000.3,N
1661460315.8,286047000.9,N
1661460335.6,286047001.4,N
1661460355.4,286047002.3,N
1661460375.3,286047001.7,N
1661460395.1,286047001.7,N
1661460415.9,286047001.8,N
1661460435.7,286047004.2,Y
1661460455.5,286047002.5,P
1661460475.4,286047001.7,P
1661460495.2,286047001.7,P
1661460515.0,286047000.0,N
1661460515.9,286047000.0,N
1661460535.8,286047001.0,N
1661460555.6,286047000.9,N
1661460575.5,286047000.0,N
1661460595.3,286047000.1,N
1661460615.1,286047000.1,N
1661460635.9,286046999.7,N
1661460655.7,286047000.3,N
1661460675.5,286047000.4,N
1661460695.4,286047000.4,N
1661460715.2,286047000.4,N
1661460735.1,286047000.4,N
1661460736.0,286047000.4,N
1661460755.8,286047000.9,N
1661460775.6,286047000.9,N
1661460795.5,286047000.4,N
1661460815.3,286047000.2,N
1661460835.1,286047002.8,Y
1661460855.9,286047002.5,P
1661460875.7,286047000.7,N
1661460895.6,286046998.2,N
1661460915.4,286047000.9,N
1661460935.2,286047002.7,N
1661460955.1,286047000.1,N
1661460956.0,286047000.1,N
1661460975.8,286047000.1,N
1661460995.7,286047002.6,N
1661461015.5,286047000.3,N
1661461035.3,286047000.7,N
1661461055.2,286047000.2,N
1661461075.0,286047000.3,N
1661461075.9,286047000.3,N
1661461095.8,286046999.9,N
1661461115.6,286047001.7,N
1661461135.4,286047003.8,Y
1661461155.3,286047003.8,P
1661461175.1,286047004.2,N
1661461195.8,286047004.0,N
